AAL1364 KMCO-KDCA

Flight info

Callsign AAL1364
Flight time 1h 40m
Altitude 37000
Route FATHE4 VIYAP Q87 RAYVO Q113 AARNN WAVES CAPSS4
Aircraft B738/M-SDE2E3FGHIRWXY/LB1

Departure

Time 2026-04-24 19:27
Airport Orlando International Airport (KMCO)

Arrival

Time 2026-04-24 21:07
Airport Ronald Reagan Washington National Airport (KDCA)
Time Latitude Longitude Altitude Speed Heading
2026-04-24 19:10 28.43473 -81.30014 94 ft 0 kts 269°
2026-04-24 19:18 28.43473 -81.30001 94 ft 4 kts 269°
2026-04-24 19:18 28.43473 -81.29971 94 ft 4 kts 270°
2026-04-24 19:18 28.43473 -81.29940 94 ft 4 kts 272°
2026-04-24 19:18 28.43472 -81.29920 94 ft 4 kts 279°
2026-04-24 19:19 28.43460 -81.29888 95 ft 4 kts 347°
2026-04-24 19:19 28.43456 -81.29887 94 ft 0 kts 360°
2026-04-24 19:22 28.43459 -81.29887 95 ft 2 kts 360°
2026-04-24 19:22 28.43491 -81.29887 94 ft 8 kts 360°
2026-04-24 19:23 28.43545 -81.29851 97 ft 10 kts 68°
2026-04-24 19:23 28.43550 -81.29772 96 ft 10 kts 89°
2026-04-24 19:23 28.43550 -81.29703 95 ft 3 kts 89°
2026-04-24 19:23 28.43550 -81.29700 94 ft 0 kts 89°
2026-04-24 19:24 28.43550 -81.29694 94 ft 2 kts 89°
2026-04-24 19:25 28.43550 -81.29662 97 ft 6 kts 89°
2026-04-24 19:25 28.43534 -81.29605 97 ft 9 kts 131°
2026-04-24 19:25 28.43499 -81.29589 98 ft 0 kts 172°
2026-04-24 19:26 28.43423 -81.29586 99 ft 39 kts 182°
2026-04-24 19:26 28.42899 -81.29580 99 ft 109 kts 180°
2026-04-24 19:26 28.41933 -81.29566 97 ft 166 kts 178°
2026-04-24 19:27 28.40648 -81.29559 375 ft 195 kts 180°
2026-04-24 19:27 28.39333 -81.29625 1446 ft 181 kts 181°
2026-04-24 19:27 28.38061 -81.29486 2005 ft 199 kts 161°
2026-04-24 19:27 28.36852 -81.28579 2247 ft 221 kts 141°
2026-04-24 19:28 28.35597 -81.27443 2552 ft 237 kts 142°
2026-04-24 19:28 28.34280 -81.26269 3054 ft 242 kts 140°
2026-04-24 19:28 28.33065 -81.24937 3656 ft 246 kts 134°
2026-04-24 19:28 28.31876 -81.23509 4186 ft 257 kts 133°
2026-04-24 19:29 28.30966 -81.19762 5667 ft 264 kts 70°
2026-04-24 19:29 28.31960 -81.18012 6395 ft 267 kts 42°
2026-04-24 19:29 28.33546 -81.16921 7085 ft 269 kts 16°
2026-04-24 19:30 28.35407 -81.16692 7795 ft 270 kts 353°
2026-04-24 19:30 28.37242 -81.17024 8551 ft 272 kts 347°
2026-04-24 19:30 28.39102 -81.17502 9334 ft 274 kts 345°
2026-04-24 19:30 28.40968 -81.18005 10093 ft 276 kts 345°
2026-04-24 19:31 28.42880 -81.18518 10475 ft 292 kts 345°
2026-04-24 19:31 28.44945 -81.19062 10646 ft 315 kts 346°
2026-04-24 19:31 28.47161 -81.19635 10811 ft 337 kts 346°
2026-04-24 19:31 28.49521 -81.20236 10975 ft 356 kts 346°
2026-04-24 19:32 28.51962 -81.20849 11246 ft 369 kts 346°
2026-04-24 19:32 28.54492 -81.21480 11778 ft 374 kts 346°
2026-04-24 19:32 28.57043 -81.22113 12413 ft 376 kts 346°
2026-04-24 19:32 28.59601 -81.22748 13068 ft 378 kts 346°
2026-04-24 19:33 28.62186 -81.23389 13698 ft 381 kts 346°
2026-04-24 19:33 28.64799 -81.24038 14276 ft 384 kts 346°
2026-04-24 19:33 28.67424 -81.24690 14880 ft 387 kts 346°
2026-04-24 19:33 28.70058 -81.25345 15477 ft 389 kts 345°
2026-04-24 19:34 28.72717 -81.26007 16070 ft 392 kts 345°
2026-04-24 19:34 28.75389 -81.26672 16659 ft 394 kts 345°
2026-04-24 19:34 28.78084 -81.27344 17233 ft 397 kts 345°
2026-04-24 19:34 28.80763 -81.28011 17784 ft 400 kts 345°
2026-04-24 19:35 28.83497 -81.28689 18339 ft 403 kts 346°
2026-04-24 19:35 28.86282 -81.29148 18818 ft 407 kts 353°
2026-04-24 19:35 28.89124 -81.29360 19280 ft 411 kts 354°
2026-04-24 19:35 28.91992 -81.29546 19717 ft 414 kts 354°
2026-04-24 19:36 28.94889 -81.29761 20156 ft 417 kts 353°
2026-04-24 19:36 28.97796 -81.30001 20611 ft 420 kts 353°
2026-04-24 19:36 29.00721 -81.30271 21042 ft 423 kts 352°
2026-04-24 19:36 29.03627 -81.30598 21458 ft 426 kts 352°
2026-04-24 19:37 29.06588 -81.30944 21872 ft 429 kts 352°
2026-04-24 19:37 29.09571 -81.31286 22286 ft 432 kts 352°
2026-04-24 19:37 29.12581 -81.31596 22674 ft 435 kts 353°
2026-04-24 19:37 29.15622 -81.31805 23052 ft 439 kts 355°
2026-04-24 19:38 29.18687 -81.31968 23422 ft 442 kts 355°
2026-04-24 19:38 29.21771 -81.32121 23747 ft 444 kts 355°
2026-04-24 19:38 29.24872 -81.32282 24070 ft 446 kts 355°
2026-04-24 19:38 29.27975 -81.32452 24423 ft 447 kts 355°
2026-04-24 19:39 29.31095 -81.32632 24749 ft 449 kts 355°
2026-04-24 19:39 29.34177 -81.32815 25060 ft 451 kts 354°
2026-04-24 19:39 29.37321 -81.33005 25369 ft 453 kts 354°
2026-04-24 19:39 29.40480 -81.33196 25678 ft 454 kts 354°
2026-04-24 19:40 29.43643 -81.33388 25978 ft 456 kts 354°
2026-04-24 19:40 29.46835 -81.33581 26261 ft 458 kts 354°
2026-04-24 19:40 29.50027 -81.33774 26540 ft 460 kts 354°
2026-04-24 19:40 29.53193 -81.33965 26807 ft 462 kts 354°
2026-04-24 19:41 29.56416 -81.34160 27084 ft 464 kts 355°
2026-04-24 19:41 29.59646 -81.34355 27321 ft 466 kts 355°
2026-04-24 19:41 29.62905 -81.34552 27584 ft 468 kts 355°
2026-04-24 19:41 29.66163 -81.34747 27850 ft 469 kts 355°
2026-04-24 19:42 29.69430 -81.34936 28130 ft 470 kts 355°
2026-04-24 19:42 29.72697 -81.35121 28519 ft 469 kts 355°
2026-04-24 19:42 29.75913 -81.35303 28951 ft 466 kts 355°
2026-04-24 19:42 29.79150 -81.35486 29362 ft 465 kts 355°
2026-04-24 19:43 29.82376 -81.35670 29728 ft 465 kts 355°
2026-04-24 19:43 29.85617 -81.35856 30085 ft 465 kts 355°
2026-04-24 19:43 29.88852 -81.36042 30398 ft 464 kts 355°
2026-04-24 19:43 29.92078 -81.36227 30710 ft 464 kts 355°
2026-04-24 19:44 29.95264 -81.36411 30999 ft 464 kts 355°
2026-04-24 19:44 29.98492 -81.36597 31277 ft 464 kts 355°
2026-04-24 19:44 30.01717 -81.36782 31569 ft 464 kts 355°
2026-04-24 19:44 30.04954 -81.36969 31868 ft 463 kts 355°
2026-04-24 19:45 30.08174 -81.37155 32154 ft 463 kts 355°
2026-04-24 19:45 30.11401 -81.37341 32428 ft 463 kts 355°
2026-04-24 19:45 30.14622 -81.37527 32693 ft 464 kts 355°
2026-04-24 19:45 30.17846 -81.37714 32945 ft 464 kts 355°
2026-04-24 19:46 30.21070 -81.37900 33238 ft 463 kts 355°
2026-04-24 19:46 30.24247 -81.38084 33530 ft 463 kts 355°
2026-04-24 19:46 30.27459 -81.38270 33810 ft 463 kts 355°
2026-04-24 19:46 30.30676 -81.38456 34058 ft 463 kts 355°
2026-04-24 19:47 30.33906 -81.38643 34287 ft 462 kts 355°
2026-04-24 19:47 30.37115 -81.38830 34540 ft 461 kts 355°
2026-04-24 19:47 30.40321 -81.39016 34781 ft 461 kts 355°
2026-04-24 19:47 30.43496 -81.39200 35004 ft 461 kts 355°
2026-04-24 19:48 30.46707 -81.39386 35227 ft 460 kts 355°
2026-04-24 19:48 30.49913 -81.39563 35460 ft 460 kts 355°
2026-04-24 19:48 30.56265 -81.39898 35892 ft 459 kts 355°
2026-04-24 19:49 30.62650 -81.40235 36336 ft 458 kts 355°
2026-04-24 19:49 30.69001 -81.40573 36746 ft 457 kts 355°
2026-04-24 19:50 30.78563 -81.41086 36978 ft 460 kts 355°
2026-04-24 19:50 30.81754 -81.41257 36981 ft 458 kts 355°
2026-04-24 19:51 30.91263 -81.41767 36982 ft 453 kts 355°
2026-04-24 19:52 31.00657 -81.42273 36971 ft 451 kts 355°
2026-04-24 19:52 31.06903 -81.42611 36974 ft 451 kts 355°
2026-04-24 19:53 31.13180 -81.42950 36974 ft 452 kts 355°
2026-04-24 19:54 31.22624 -81.43351 36973 ft 457 kts
2026-04-24 19:54 31.28844 -81.41765 36978 ft 464 kts 21°
2026-04-24 19:55 31.32727 -81.39703 36991 ft 466 kts 24°
2026-04-24 19:55 31.40518 -81.35328 36981 ft 468 kts 24°
2026-04-24 19:56 31.46422 -81.32079 36978 ft 468 kts 23°
2026-04-24 19:56 31.52294 -81.28882 36985 ft 469 kts 23°
2026-04-24 19:57 31.58217 -81.25656 36967 ft 469 kts 23°
2026-04-24 19:57 31.64121 -81.22432 36963 ft 468 kts 23°
2026-04-24 19:58 31.69978 -81.19230 36953 ft 468 kts 23°
2026-04-24 19:58 31.75885 -81.15997 36951 ft 467 kts 23°
2026-04-24 19:59 31.81730 -81.12793 36948 ft 466 kts 23°
2026-04-24 19:59 31.87616 -81.09561 36942 ft 466 kts 23°
2026-04-24 20:00 31.93495 -81.06328 36943 ft 465 kts 23°
2026-04-24 20:00 31.99368 -81.03095 36944 ft 465 kts 23°
2026-04-24 20:01 32.05183 -80.99865 36960 ft 465 kts 24°
2026-04-24 20:01 32.11024 -80.96592 36945 ft 465 kts 24°
2026-04-24 20:02 32.15874 -80.93871 36968 ft 465 kts 24°
2026-04-24 20:02 32.22673 -80.90054 36966 ft 464 kts 24°
2026-04-24 20:03 32.28489 -80.86787 36975 ft 463 kts 24°
2026-04-24 20:03 32.34319 -80.83507 36988 ft 464 kts 24°
2026-04-24 20:04 32.40159 -80.80217 36955 ft 465 kts 24°
2026-04-24 20:04 32.45958 -80.76945 36964 ft 465 kts 24°
2026-04-24 20:05 32.50809 -80.74203 36961 ft 465 kts 24°
2026-04-24 20:05 32.56643 -80.70903 36972 ft 465 kts 24°
2026-04-24 20:06 32.62478 -80.67596 36959 ft 465 kts 24°
2026-04-24 20:06 32.68276 -80.64306 36959 ft 465 kts 24°
2026-04-24 20:07 32.73164 -80.61513 36948 ft 465 kts 24°
2026-04-24 20:07 32.79898 -80.57524 36944 ft 465 kts 25°
2026-04-24 20:08 32.85684 -80.54068 36946 ft 465 kts 25°
2026-04-24 20:08 32.91439 -80.50637 36938 ft 465 kts 25°
2026-04-24 20:09 32.97230 -80.47188 36943 ft 465 kts 24°
2026-04-24 20:09 33.03027 -80.43733 36920 ft 465 kts 24°
2026-04-24 20:10 33.08822 -80.40274 36931 ft 465 kts 25°
2026-04-24 20:10 33.14558 -80.36844 36935 ft 464 kts 25°
2026-04-24 20:11 33.20331 -80.33386 36936 ft 464 kts 25°
2026-04-24 20:11 33.26120 -80.29915 36936 ft 465 kts 25°
2026-04-24 20:12 33.31919 -80.26432 36928 ft 466 kts 25°
2026-04-24 20:12 33.37676 -80.22968 36927 ft 465 kts 25°
2026-04-24 20:13 33.43461 -80.19483 36933 ft 465 kts 25°
2026-04-24 20:13 33.49244 -80.15994 36936 ft 464 kts 25°
2026-04-24 20:14 33.55007 -80.12510 36932 ft 464 kts 25°
2026-04-24 20:14 33.60736 -80.09043 36934 ft 464 kts 24°
2026-04-24 20:15 33.66299 -80.05116 36919 ft 467 kts 38°
2026-04-24 20:15 33.71199 -79.99970 36922 ft 467 kts 40°
2026-04-24 20:16 33.76045 -79.94756 36918 ft 467 kts 40°
2026-04-24 20:16 33.80905 -79.89594 36920 ft 467 kts 39°
2026-04-24 20:17 33.85807 -79.84428 36916 ft 468 kts 39°
2026-04-24 20:17 33.93137 -79.76703 36916 ft 468 kts 39°
2026-04-24 20:18 33.98006 -79.71557 36914 ft 468 kts 39°
2026-04-24 20:18 34.02915 -79.66358 36908 ft 469 kts 39°
2026-04-24 20:19 34.07814 -79.61163 36918 ft 469 kts 39°
2026-04-24 20:19 34.12678 -79.55995 36911 ft 469 kts 39°
2026-04-24 20:20 34.17581 -79.50778 36914 ft 469 kts 39°
2026-04-24 20:20 34.22448 -79.45593 36915 ft 468 kts 39°
2026-04-24 20:21 34.27337 -79.40373 36909 ft 468 kts 39°
2026-04-24 20:21 34.32235 -79.35133 36908 ft 468 kts 39°
2026-04-24 20:22 34.37084 -79.29937 36899 ft 468 kts 39°
2026-04-24 20:22 34.41987 -79.24726 36906 ft 467 kts 36°
2026-04-24 20:23 34.44663 -79.22512 36890 ft 463 kts 25°
2026-04-24 20:23 34.47524 -79.20733 36913 ft 461 kts 24°
2026-04-24 20:23 34.53264 -79.17329 36909 ft 461 kts 23°
2026-04-24 20:24 34.59044 -79.13877 36890 ft 461 kts 24°
2026-04-24 20:24 34.64751 -79.10410 36899 ft 461 kts 24°
2026-04-24 20:25 34.70492 -79.06893 36899 ft 461 kts 24°
2026-04-24 20:25 34.76233 -79.03366 36910 ft 461 kts 24°
2026-04-24 20:26 34.81935 -78.99860 36877 ft 461 kts 24°
2026-04-24 20:26 34.87678 -78.96324 36879 ft 461 kts 24°
2026-04-24 20:27 34.93413 -78.92788 36879 ft 461 kts 24°
2026-04-24 20:27 34.99139 -78.89252 36884 ft 461 kts 24°
2026-04-24 20:28 35.04832 -78.85731 36884 ft 461 kts 24°
2026-04-24 20:28 35.10565 -78.82179 36859 ft 461 kts 24°
2026-04-24 20:29 35.16285 -78.78630 36869 ft 461 kts 24°
2026-04-24 20:29 35.21982 -78.75090 36867 ft 461 kts 24°
2026-04-24 20:30 35.27695 -78.71534 36883 ft 460 kts 24°
2026-04-24 20:30 35.33412 -78.67969 36884 ft 460 kts 24°
2026-04-24 20:31 35.39116 -78.64407 36877 ft 460 kts 24°
2026-04-24 20:31 35.44819 -78.60840 36879 ft 460 kts 24°
2026-04-24 20:32 35.50515 -78.57271 36862 ft 460 kts 24°
2026-04-24 20:32 35.56216 -78.53694 36862 ft 459 kts 24°
2026-04-24 20:33 35.61879 -78.50135 36860 ft 459 kts 24°
2026-04-24 20:33 35.67585 -78.46543 36863 ft 459 kts 24°
2026-04-24 20:34 35.73285 -78.42949 36868 ft 459 kts 24°
2026-04-24 20:34 35.78939 -78.39380 36861 ft 459 kts 24°
2026-04-24 20:35 35.84619 -78.35789 36865 ft 458 kts 24°
2026-04-24 20:35 35.90286 -78.32199 36878 ft 457 kts 24°
2026-04-24 20:36 35.95950 -78.28605 36892 ft 457 kts 24°
2026-04-24 20:36 36.01574 -78.25031 36878 ft 456 kts 24°
2026-04-24 20:37 36.07225 -78.21433 36878 ft 455 kts 24°
2026-04-24 20:37 36.12848 -78.17848 36877 ft 454 kts 24°
2026-04-24 20:38 36.18430 -78.14283 36891 ft 453 kts 24°
2026-04-24 20:38 36.24035 -78.10697 36875 ft 452 kts 24°
2026-04-24 20:39 36.29617 -78.07120 36866 ft 451 kts 24°
2026-04-24 20:39 36.35148 -78.03571 36865 ft 449 kts 24°
2026-04-24 20:40 36.40791 -78.00273 36873 ft 445 kts 18°
2026-04-24 20:40 36.46578 -77.97620 36863 ft 444 kts 17°
2026-04-24 20:41 36.52407 -77.95010 36868 ft 443 kts 17°
2026-04-24 20:41 36.58183 -77.92362 36884 ft 444 kts 17°
2026-04-24 20:42 36.63979 -77.89663 36907 ft 444 kts 17°
2026-04-24 20:42 36.69735 -77.86969 36887 ft 444 kts 17°
2026-04-24 20:43 36.75518 -77.84257 36880 ft 444 kts 17°
2026-04-24 20:43 36.81305 -77.81540 36872 ft 443 kts 17°
2026-04-24 20:44 36.87082 -77.78824 36872 ft 443 kts 17°
2026-04-24 20:44 36.89989 -77.77457 36400 ft 449 kts 17°
2026-04-24 20:44 36.92903 -77.76085 35856 ft 446 kts 17°
2026-04-24 20:45 36.95811 -77.74714 35211 ft 446 kts 17°
2026-04-24 20:45 36.98688 -77.73356 34563 ft 447 kts 18°
2026-04-24 20:45 37.01603 -77.71980 33882 ft 448 kts 18°
2026-04-24 20:45 37.04532 -77.70596 33087 ft 451 kts 18°
2026-04-24 20:46 37.07468 -77.69207 32353 ft 451 kts 18°
2026-04-24 20:46 37.10421 -77.67809 31599 ft 452 kts 18°
2026-04-24 20:46 37.13367 -77.66414 30841 ft 453 kts 18°
2026-04-24 20:46 37.16335 -77.65006 30054 ft 455 kts 18°
2026-04-24 20:47 37.19303 -77.63598 29103 ft 457 kts 18°
2026-04-24 20:47 37.22249 -77.62198 28394 ft 454 kts 18°
2026-04-24 20:47 37.25188 -77.60799 27764 ft 449 kts 18°
2026-04-24 20:47 37.28101 -77.59412 27171 ft 444 kts 18°
2026-04-24 20:48 37.30978 -77.58041 26592 ft 439 kts 18°
2026-04-24 20:48 37.33822 -77.56685 25998 ft 435 kts 18°
2026-04-24 20:48 37.36638 -77.55342 25418 ft 431 kts 18°
2026-04-24 20:48 37.39412 -77.54018 24847 ft 428 kts 17°
2026-04-24 20:49 37.42192 -77.52691 24245 ft 426 kts 17°
2026-04-24 20:49 37.44953 -77.51371 23664 ft 423 kts 17°
2026-04-24 20:49 37.47709 -77.50053 23017 ft 422 kts 17°
2026-04-24 20:49 37.50456 -77.48738 22400 ft 420 kts 17°
2026-04-24 20:50 37.53125 -77.47458 22181 ft 407 kts 18°
2026-04-24 20:50 37.55732 -77.46205 21989 ft 394 kts 18°
2026-04-24 20:50 37.58267 -77.44987 21822 ft 382 kts 17°
2026-04-24 20:50 37.60765 -77.43962 21475 ft 375 kts 11°
2026-04-24 20:51 37.63273 -77.43204 21133 ft 370 kts
2026-04-24 20:51 37.64859 -77.42763 20903 ft 368 kts
2026-04-24 20:51 37.68227 -77.41815 20432 ft 364 kts
2026-04-24 20:51 37.70705 -77.41083 20098 ft 366 kts 10°
2026-04-24 20:52 37.73188 -77.40326 19868 ft 368 kts 10°
2026-04-24 20:52 37.74871 -77.39807 19707 ft 369 kts 10°
2026-04-24 20:52 37.77329 -77.39045 19524 ft 366 kts 10°
2026-04-24 20:52 37.79792 -77.38278 19583 ft 363 kts 10°
2026-04-24 20:53 37.82259 -77.37509 19587 ft 368 kts 10°
2026-04-24 20:53 37.84741 -77.36741 19544 ft 363 kts 10°
2026-04-24 20:53 37.87177 -77.35990 19241 ft 359 kts 10°
2026-04-24 20:53 37.89602 -77.35242 18770 ft 358 kts 10°
2026-04-24 20:54 37.92033 -77.34496 18232 ft 360 kts 10°
2026-04-24 20:54 37.94464 -77.33749 17728 ft 359 kts 10°
2026-04-24 20:54 37.96884 -77.33004 17280 ft 353 kts 10°
2026-04-24 20:54 37.99250 -77.32275 16544 ft 349 kts 10°
2026-04-24 20:55 38.01618 -77.31546 15733 ft 350 kts 10°
2026-04-24 20:55 38.03983 -77.30817 15010 ft 348 kts 10°
2026-04-24 20:55 38.06291 -77.30105 14359 ft 344 kts 10°
2026-04-24 20:55 38.08611 -77.29384 13708 ft 341 kts 10°
2026-04-24 20:56 38.10911 -77.28662 12982 ft 338 kts 10°
2026-04-24 20:56 38.13184 -77.27947 12279 ft 336 kts 11°
2026-04-24 20:56 38.15453 -77.27233 11595 ft 333 kts 11°
2026-04-24 20:56 38.17695 -77.26528 10945 ft 330 kts 11°
2026-04-24 20:57 38.19910 -77.25831 10522 ft 321 kts 11°
2026-04-24 20:57 38.22002 -77.25166 10334 ft 305 kts 10°
2026-04-24 20:57 38.24009 -77.24526 10184 ft 289 kts 10°
2026-04-24 20:57 38.25917 -77.23919 10049 ft 275 kts 10°
2026-04-24 20:58 38.27742 -77.23339 9867 ft 268 kts 10°
2026-04-24 20:58 38.29552 -77.22766 9609 ft 267 kts
2026-04-24 20:58 38.31362 -77.22194 9345 ft 278 kts
2026-04-24 20:58 38.33262 -77.21552 9050 ft 285 kts 17°
2026-04-24 20:59 38.34938 -77.20176 8734 ft 290 kts 38°
2026-04-24 20:59 38.36439 -77.18459 8428 ft 289 kts 39°
2026-04-24 20:59 38.37928 -77.16747 8125 ft 288 kts 39°
2026-04-24 20:59 38.39415 -77.15045 7826 ft 286 kts 39°
2026-04-24 21:00 38.40883 -77.13372 7520 ft 286 kts 39°
2026-04-24 21:00 38.42369 -77.11685 7230 ft 284 kts 38°
2026-04-24 21:00 38.43849 -77.10008 6930 ft 283 kts 38°
2026-04-24 21:00 38.45322 -77.08342 6644 ft 282 kts 38°
2026-04-24 21:01 38.46793 -77.06679 6342 ft 282 kts 39°
2026-04-24 21:01 38.48260 -77.05021 6038 ft 282 kts 39°
2026-04-24 21:01 38.49707 -77.03384 5737 ft 281 kts 39°
2026-04-24 21:01 38.51203 -77.01788 5425 ft 278 kts 29°
2026-04-24 21:02 38.52997 -77.01036 5136 ft 269 kts
2026-04-24 21:02 38.54857 -77.01024 4867 ft 265 kts 354°
2026-04-24 21:02 38.56702 -77.01174 4590 ft 264 kts 353°
2026-04-24 21:02 38.58504 -77.01339 4287 ft 263 kts 353°
2026-04-24 21:03 38.60329 -77.01496 4022 ft 262 kts 354°
2026-04-24 21:03 38.62151 -77.01639 3746 ft 261 kts 354°
2026-04-24 21:03 38.63966 -77.01771 3464 ft 260 kts 356°
2026-04-24 21:03 38.65767 -77.01899 3209 ft 258 kts 356°
2026-04-24 21:04 38.67557 -77.02024 2893 ft 257 kts 357°
2026-04-24 21:04 38.69320 -77.02171 2737 ft 248 kts 356°
2026-04-24 21:04 38.70963 -77.02339 2650 ft 232 kts 356°
2026-04-24 21:04 38.72541 -77.02501 2558 ft 217 kts 357°
2026-04-24 21:05 38.73975 -77.02646 2487 ft 202 kts 357°
2026-04-24 21:05 38.75323 -77.02782 2367 ft 187 kts 358°
2026-04-24 21:05 38.76583 -77.02909 2186 ft 178 kts 359°
2026-04-24 21:05 38.77821 -77.03035 1736 ft 182 kts 359°
2026-04-24 21:06 38.79244 -77.03213 1297 ft 203 kts 357°
2026-04-24 21:06 38.80581 -77.03393 968 ft 190 kts 358°
2026-04-24 21:06 38.81892 -77.03525 492 ft 187 kts 358°
2026-04-24 21:06 38.83138 -77.03617 216 ft 172 kts
2026-04-24 21:07 38.84261 -77.03696 50 ft 155 kts
2026-04-24 21:07 38.85240 -77.03785 22 ft 124 kts 351°
2026-04-24 21:07 38.85867 -77.03854 27 ft 45 kts 345°
2026-04-24 21:07 38.85909 -77.03952 24 ft 10 kts 243°
2026-04-24 21:08 38.85845 -77.03982 27 ft 10 kts 182°
2026-04-24 21:08 38.85771 -77.03977 27 ft 11 kts 176°
2026-04-24 21:08 38.85706 -77.04000 26 ft 8 kts 224°
2026-04-24 21:08 38.85655 -77.04041 26 ft 10 kts 196°
2026-04-24 21:09 38.85582 -77.04040 27 ft 11 kts 172°
2026-04-24 21:09 38.85540 -77.04082 25 ft 8 kts 247°
2026-04-24 21:09 38.85533 -77.04137 24 ft 6 kts 286°
2026-04-24 21:09 38.85562 -77.04161 24 ft 4 kts 335°
2026-04-24 21:10 38.85577 -77.04170 23 ft 0 kts 335°